When you browse on this site, cookies collect data to enhance your experience and personalize the content and advertising you see.
Visit our Privacy Policy to learn more. By continuing to use the site, you agree to this use of cookies and data.
  • Em Portugal
  • Lista de países
  • Para 7 dias
  • Temperatura da água
  • Mapa do tempo
  • Widgets de tempo
  • user-avatar
    Iniciar Sessão

    Previsão horária em Soelden

    Hoje, 29 Fevereiro, Sábado

    Tempo Temperatura Precipitação Vento Pressão Humidade
    00:00 -10°C° 0 mm 1 m/s 578 mmHg 48%
    01:00 -10°C° 0 mm 1 m/s 577 mmHg 49%
    02:00 -10°C° 0 mm 1 m/s 577 mmHg 51%
    03:00 -10°C° 0 mm 1 m/s 577 mmHg 52%
    04:00 -10°C° 0 mm 1 m/s 576 mmHg 53%
    05:00 -9°C° 0 mm 1 m/s 576 mmHg 54%
    06:00 -9°C° 0 mm 1 m/s 576 mmHg 55%
    07:00 -9°C° 0 mm 1 m/s 576 mmHg 56%
    08:00 -8°C° 0 mm 1 m/s 576 mmHg 55%
    09:00 -6°C° 0 mm 1 m/s 576 mmHg 54%
    10:00 -4°C° 0 mm 1 m/s 576 mmHg 53%
    11:00 -6°C° 0 mm 2 m/s 576 mmHg 53%
    12:00 -5°C° 0 mm 2 m/s 576 mmHg 54%
    13:00 -5°C° 0 mm 2 m/s 576 mmHg 54%
    14:00 -5°C° 0 mm 2 m/s 575 mmHg 57%
    15:00 -5°C° 0 mm 2 m/s 575 mmHg 60%
    16:00 -5°C° 0 mm 2 m/s 574 mmHg 63%
    17:00 -7°C° 0 mm 2 m/s 574 mmHg 69%
    18:00 -8°C° 0 mm 2 m/s 573 mmHg 74%
    19:00 -8°C° 0 mm 1 m/s 573 mmHg 80%
    20:00 -8°C° 0 mm 1 m/s 573 mmHg 83%
    21:00 -8°C° 0 mm 1 m/s 573 mmHg 86%
    22:00 -8°C° 0 mm 1 m/s 573 mmHg 90%
    23:00 -8°C° 0.1 mm 1 m/s 573 mmHg 91%

    Amanhã, 1 Março, Domingo

    Tempo Temperatura Precipitação Vento Pressão Humidade
    00:00 -8°C° 0.1 mm 1 m/s 572 mmHg 92%
    01:00 -8°C° 0.1 mm 1 m/s 572 mmHg 94%
    02:00 -8°C° 0.1 mm 1 m/s 572 mmHg 94%
    03:00 -8°C° 0.1 mm 1 m/s 572 mmHg 94%
    04:00 -8°C° 0.1 mm 1 m/s 572 mmHg 95%
    05:00 -8°C° 0.2 mm 1 m/s 571 mmHg 95%
    06:00 -8°C° 0.2 mm 1 m/s 571 mmHg 95%
    07:00 -7°C° 0.2 mm 1 m/s 571 mmHg 95%
    08:00 -6°C° 0.4 mm 1 m/s 571 mmHg 94%
    09:00 -4°C° 0.4 mm 1 m/s 572 mmHg 92%
    10:00 -3°C° 0.4 mm 1 m/s 572 mmHg 91%
    11:00 -3°C° 0.5 mm 1 m/s 572 mmHg 92%
    12:00 -3°C° 0.5 mm 1 m/s 572 mmHg 92%
    13:00 -2°C° 0.5 mm 1 m/s 572 mmHg 93%
    14:00 -2°C° 0.3 mm 1 m/s 571 mmHg 94%
    15:00 -2°C° 0.3 mm 1 m/s 571 mmHg 94%
    16:00 -2°C° 0.3 mm 1 m/s 570 mmHg 95%
    17:00 -3°C° 0.2 mm 1 m/s 570 mmHg 96%
    18:00 -4°C° 0.2 mm 1 m/s 569 mmHg 97%
    19:00 -5°C° 0.2 mm 0 m/s 569 mmHg 98%
    20:00 -6°C° 0.2 mm 0 m/s 569 mmHg 98%
    21:00 -6°C° 0.2 mm 0 m/s 569 mmHg 97%
    22:00 -6°C° 0.2 mm 1 m/s 568 mmHg 97%
    23:00 -6°C° 0.1 mm 1 m/s 568 mmHg 96%

    Depois de amanhã, 2 Março, Segunda-feira

    Tempo Temperatura Precipitação Vento Pressão Humidade
    00:00 -7°C° 0.1 mm 1 m/s 568 mmHg 96%
    01:00 -7°C° 0.1 mm 1 m/s 568 mmHg 95%
    02:00 -7°C° 0.1 mm 1 m/s 567 mmHg 93%
    03:00 -8°C° 0.1 mm 1 m/s 567 mmHg 90%
    04:00 -8°C° 0.1 mm 1 m/s 567 mmHg 88%
    05:00 -8°C° 0 mm 1 m/s 567 mmHg 86%
    06:00 -8°C° 0 mm 1 m/s 567 mmHg 85%
    07:00 -8°C° 0 mm 1 m/s 567 mmHg 83%
    08:00 -7°C° 0 mm 1 m/s 567 mmHg 84%
    09:00 -6°C° 0 mm 1 m/s 567 mmHg 84%
    10:00 -6°C° 0 mm 2 m/s 568 mmHg 85%
    11:00 -5°C° 0.1 mm 2 m/s 567 mmHg 84%
    12:00 -5°C° 0.1 mm 2 m/s 567 mmHg 84%
    13:00 -4°C° 0.1 mm 2 m/s 567 mmHg 83%
    14:00 -5°C° 1.3 mm 2 m/s 566 mmHg 87%
    15:00 -5°C° 1.3 mm 2 m/s 565 mmHg 91%
    16:00 -6°C° 1.3 mm 2 m/s 564 mmHg 96%
    17:00 -4°C° 1.7 mm 1 m/s 563 mmHg 96%
    18:00 -6°C° 1.7 mm 1 m/s 563 mmHg 97%
    19:00 -6°C° 1.7 mm 0 m/s 563 mmHg 97%
    20:00 -6°C° 1.4 mm 1 m/s 563 mmHg 97%
    21:00 -6°C° 1.4 mm 1 m/s 563 mmHg 97%
    22:00 -7°C° 1.4 mm 2 m/s 563 mmHg 96%
    23:00 -7°C° 1.6 mm 2 m/s 563 mmHg 95%

    3 Março, Terça-feira

    Tempo Temperatura Precipitação Vento Pressão Humidade
    00:00 -8°C° 1.6 mm 3 m/s 563 mmHg 94%
    01:00 -9°C° 1.6 mm 3 m/s 563 mmHg 93%
    02:00 -9°C° 1 mm 3 m/s 563 mmHg 91%
    03:00 -10°C° 1 mm 3 m/s 563 mmHg 90%
    04:00 -12°C° 1 mm 3 m/s 563 mmHg 88%
    05:00 -12°C° 0.2 mm 4 m/s 564 mmHg 87%
    06:00 -12°C° 0.2 mm 4 m/s 564 mmHg 86%
    07:00 -14°C° 0.2 mm 4 m/s 564 mmHg 86%
    08:00 -12°C° 0 mm 4 m/s 565 mmHg 82%
    09:00 -11°C° 0 mm 4 m/s 566 mmHg 78%
    10:00 -10°C° 0 mm 4 m/s 567 mmHg 74%
    11:00 -10°C° 0 mm 4 m/s 567 mmHg 72%
    12:00 -9°C° 0 mm 4 m/s 567 mmHg 71%
    13:00 -9°C° 0 mm 4 m/s 568 mmHg 69%
    14:00 -9°C° 0 mm 4 m/s 568 mmHg 70%
    15:00 -8°C° 0 mm 3 m/s 568 mmHg 71%
    16:00 -8°C° 0 mm 3 m/s 569 mmHg 72%
    17:00 -10°C° 0 mm 3 m/s 568 mmHg 76%
    18:00 -12°C° 0 mm 3 m/s 568 mmHg 80%
    19:00 -14°C° 0 mm 3 m/s 568 mmHg 83%
    20:00 -14°C° 0 mm 3 m/s 568 mmHg 84%
    21:00 -15°C° 0 mm 3 m/s 568 mmHg 84%
    22:00 -16°C° 0 mm 3 m/s 569 mmHg 84%
    23:00 -16°C° 0 mm 3 m/s 568 mmHg 82%

    4 Março, Quarta-feira

    Tempo Temperatura Precipitação Vento Pressão Humidade
    00:00 -17°C° 0 mm 3 m/s 568 mmHg 80%
    01:00 -17°C° 0 mm 3 m/s 568 mmHg 78%
    02:00 -16°C° 0 mm 2 m/s 568 mmHg 77%
    03:00 -16°C° 0 mm 2 m/s 568 mmHg 77%
    04:00 -17°C° 0 mm 2 m/s 568 mmHg 76%
    05:00 -17°C° 0 mm 2 m/s 568 mmHg 76%
    06:00 -17°C° 0 mm 2 m/s 568 mmHg 76%
    07:00 -17°C° 0 mm 2 m/s 568 mmHg 76%
    08:00 -14°C° 0 mm 2 m/s 570 mmHg 72%
    09:00 -10°C° 0 mm 1 m/s 571 mmHg 69%
    10:00 -7°C° 0 mm 1 m/s 572 mmHg 65%
    11:00 -6°C° 0 mm 1 m/s 572 mmHg 64%
    12:00 -6°C° 0 mm 1 m/s 572 mmHg 63%
    13:00 -4°C° 0 mm 1 m/s 573 mmHg 63%
    14:00 -4°C° 0 mm 1 m/s 573 mmHg 65%
    15:00 -4°C° 0 mm 1 m/s 572 mmHg 68%
    16:00 -4°C° 0 mm 1 m/s 572 mmHg 70%
    17:00 -7°C° 0 mm 1 m/s 572 mmHg 75%
    18:00 -9°C° 0 mm 1 m/s 571 mmHg 80%
    19:00 -13°C° 0 mm 2 m/s 571 mmHg 85%
    20:00 -13°C° 0 mm 2 m/s 571 mmHg 84%
    21:00 -14°C° 0 mm 2 m/s 571 mmHg 83%
    22:00 -14°C° 0 mm 2 m/s 571 mmHg 82%
    23:00 -14°C° 0 mm 2 m/s 571 mmHg 80%

    5 Março, Quinta-feira

    Tempo Temperatura Precipitação Vento Pressão Humidade
    00:00 -15°C° 0 mm 2 m/s 571 mmHg 78%
    01:00 -15°C° 0 mm 2 m/s 571 mmHg 77%
    02:00 -15°C° 0 mm 2 m/s 571 mmHg 74%
    03:00 -13°C° 0 mm 1 m/s 571 mmHg 71%
    04:00 -13°C° 0 mm 1 m/s 570 mmHg 68%
    05:00 -13°C° 0 mm 1 m/s 570 mmHg 67%
    06:00 -13°C° 0 mm 1 m/s 570 mmHg 66%
    07:00 -13°C° 0 mm 1 m/s 570 mmHg 64%
    08:00 -11°C° 0 mm 1 m/s 571 mmHg 64%
    09:00 -8°C° 0 mm 1 m/s 572 mmHg 64%
    10:00 -6°C° 0 mm 1 m/s 573 mmHg 63%
    11:00 -6°C° 0 mm 1 m/s 573 mmHg 66%
    12:00 -4°C° 0 mm 1 m/s 573 mmHg 69%
    13:00 -6°C° 0 mm 2 m/s 573 mmHg 72%
    14:00 -6°C° 0 mm 2 m/s 572 mmHg 76%
    15:00 -6°C° 0 mm 2 m/s 572 mmHg 80%
    16:00 -6°C° 0 mm 2 m/s 572 mmHg 84%
    17:00 -6°C° 0.1 mm 1 m/s 571 mmHg 87%
    18:00 -7°C° 0.1 mm 1 m/s 571 mmHg 91%
    19:00 -8°C° 0.1 mm 1 m/s 571 mmHg 94%
    20:00 -9°C° 0.1 mm 1 m/s 571 mmHg 94%
    21:00 -9°C° 0.1 mm 1 m/s 570 mmHg 94%
    22:00 -10°C° 0.1 mm 1 m/s 570 mmHg 94%
    23:00 -10°C° 0 mm 1 m/s 570 mmHg 94%
    Mostrar mais